�������l�o���
Date,Time,MP-1(��Sv/h),MP-2(��Sv/h),MP-3(��Sv/h),MP-4(��Sv/h),MP-5(��Sv/h),MP-6(��Sv/h),MP-7(��Sv/h),MP-8(��Sv/h),����,����(m/s),���J
2014/05/09,00:00,2.4,4.3,4.8,4.3,4.6,1.6,2.3,2.7,��,13.2,��
2014/05/09,00:10,2.4,4.3,4.8,4.3,4.6,1.6,2.3,2.7,��,9.6,��
2014/05/09,00:20,2.4,4.3,4.8,4.3,4.6,1.6,2.3,2.7,��,10.5,��
2014/05/09,00:30,2.4,4.3,4.9,4.3,4.6,1.6,2.3,2.7,��,9.6,��
2014/05/09,00:40,2.4,4.3,4.8,4.3,4.6,1.6,2.3,2.7,��,8.2,��
2014/05/09,00:50,2.4,4.3,4.8,4.3,4.6,1.6,2.3,2.7,��,8.3,��
2014/05/09,01:00,2.4,4.3,4.8,4.3,4.6,1.6,2.3,2.7,��,8.5,��
2014/05/09,01:10,2.4,4.3,4.8,4.3,4.6,1.6,2.3,2.7,��,7.2,��
2014/05/09,01:20,2.4,4.3,4.8,4.3,4.6,1.6,2.3,2.7,��,6.1,��
2014/05/09,01:30,2.4,4.3,4.8,4.3,4.6,1.6,2.3,2.7,�쐼,4.8,��
2014/05/09,01:40,2.4,4.3,4.8,4.3,4.6,1.6,2.3,2.7,���쐼,4.5,�L
2014/05/09,01:50,2.4,4.3,4.8,4.3,4.6,1.6,2.3,2.7,���쐼,5.5,��
2014/05/09,02:00,2.4,4.3,4.8,4.3,4.6,1.6,2.3,2.7,���쐼,6.9,��
2014/05/09,02:10,2.4,4.3,4.8,4.3,4.6,1.6,2.3,2.7,��쐼,5.2,��
2014/05/09,02:20,2.4,4.3,4.8,4.3,4.6,1.6,2.3,2.7,��쐼,4.4,��
2014/05/09,02:30,2.4,4.3,4.8,4.3,4.6,1.6,2.3,2.7,��쐼,4.5,��
2014/05/09,02:40,2.4,4.3,4.8,4.3,4.6,1.6,2.3,2.7,�쐼,2.6,��
2014/05/09,02:50,2.4,4.3,4.8,4.3,4.6,1.6,2.3,2.7,�쐼,3.0,��
2014/05/09,03:00,2.4,4.3,4.8,4.3,4.6,1.6,2.3,2.7,�쐼,2.6,��
2014/05/09,03:10,2.4,4.3,4.8,4.3,4.6,1.6,2.3,2.7,�쐼,4.7,��
2014/05/09,03:20,2.4,4.3,4.8,4.3,4.6,1.6,2.3,2.7,�쐼,4.7,��
2014/05/09,03:30,2.4,4.3,4.8,4.3,4.6,1.6,2.3,2.7,�쐼,4.7,��
2014/05/09,03:40,2.4,4.3,4.8,4.3,4.6,1.6,2.3,2.7,��쐼,3.7,��
2014/05/09,03:50,2.4,4.3,4.8,4.3,4.6,1.6,2.3,2.7,��쐼,4.0,��
2014/05/09,04:00,2.4,4.3,4.8,4.3,4.6,1.6,2.3,2.7,��쐼,4.3,��
2014/05/09,04:10,2.4,4.3,4.8,4.3,4.6,1.6,2.3,2.7,��쐼,4.2,��
2014/05/09,04:20,2.4,4.3,4.8,4.3,4.6,1.6,2.3,2.7,��쐼,4.0,��
2014/05/09,04:30,2.4,4.3,4.8,4.3,4.6,1.6,2.3,2.7,��쐼,2.5,��
2014/05/09,04:40,2.4,4.3,4.8,4.3,4.6,1.6,2.3,2.7,��쐼,1.3,��
2014/05/09,04:50,2.4,4.3,4.8,4.3,4.6,1.6,2.3,2.7,�쐼,1.1,��
2014/05/09,05:00,2.4,4.3,4.8,4.3,4.6,1.6,2.3,2.7,-,CALM,��
2014/05/09,05:10,2.4,4.3,4.8,4.3,4.6,1.6,2.3,2.7,��,0.9,��
2014/05/09,05:20,2.4,4.3,4.8,4.3,4.6,1.6,2.3,2.7,��,1.2,��
2014/05/09,05:30,2.4,4.3,4.8,4.3,4.6,1.6,2.3,2.7,��쐼,1.2,��
2014/05/09,05:40,2.4,4.3,4.8,4.3,4.6,1.6,2.3,2.7,��쓌,1.8,��
2014/05/09,05:50,2.4,4.3,4.8,4.3,4.6,1.6,2.3,2.7,��,1.6,��
2014/05/09,06:00,2.4,4.3,4.8,4.3,4.6,1.6,2.3,2.7,��,2.0,��
2014/05/09,06:10,2.4,4.3,4.8,4.3,4.6,1.6,2.3,2.7,��,2.4,��
2014/05/09,06:20,2.4,4.3,4.8,4.3,4.6,1.6,2.3,2.7,��,2.7,��
2014/05/09,06:30,2.4,4.3,4.8,4.3,4.6,1.6,2.3,2.7,��,3.5,��
2014/05/09,06:40,2.4,4.3,4.8,4.3,4.6,1.6,2.3,2.7,��쐼,2.9,��
2014/05/09,06:50,2.4,4.3,4.8,4.3,4.6,1.6,2.3,2.7,��,2.7,��
2014/05/09,07:00,2.4,4.3,4.8,4.3,4.6,1.6,2.3,2.7,��쐼,2.1,��
2014/05/09,07:10,2.4,4.3,4.8,4.3,4.6,1.6,2.3,2.7,��쓌,2.2,��
2014/05/09,07:20,2.4,4.3,4.8,4.3,4.6,1.6,2.3,2.7,��,1.4,��
2014/05/09,07:30,2.4,4.3,4.9,4.3,4.6,1.6,2.3,2.7,�쓌,1.0,��
2014/05/09,07:40,2.4,4.3,4.9,4.3,4.6,1.6,2.3,2.7,�쐼,0.6,��
2014/05/09,07:50,2.4,4.3,4.9,4.3,4.6,1.6,2.3,2.7,��,1.2,��
2014/05/09,08:00,2.4,4.3,4.8,4.3,4.6,1.6,2.3,2.7,��,1.1,��
2014/05/09,08:10,2.4,4.3,4.9,4.3,4.6,1.6,2.3,2.7,��,1.3,��
2014/05/09,08:20,2.4,4.3,4.9,4.3,4.6,1.6,2.3,2.7,��,1.9,��
2014/05/09,08:30,2.4,4.3,4.9,4.3,4.6,1.6,2.3,2.7,��,4.1,��
2014/05/09,08:40,2.4,4.3,4.9,4.3,4.6,1.6,2.3,2.7,��,7.1,��
2014/05/09,08:50,2.4,4.3,4.9,4.3,4.6,1.6,2.3,2.7,���k��,7.7,��
2014/05/09,09:00,2.4,4.3,4.9,4.3,4.6,1.6,2.3,2.7,��,7.7,��
2014/05/09,09:10,2.4,4.3,4.9,4.3,4.6,1.6,2.3,2.7,��,6.8,��
2014/05/09,09:20,2.4,4.3,4.9,4.3,4.6,1.6,2.3,2.7,��,7.4,��
2014/05/09,09:30,2.4,4.3,4.9,4.3,4.6,1.6,2.3,2.7,-,CALM,��
2014/05/09,09:40,2.4,4.3,4.9,4.3,4.6,1.6,2.3,2.7,-,CALM,��
2014/05/09,09:50,2.4,4.3,4.9,4.3,4.6,1.6,2.3,2.7,-,CALM,��
2014/05/09,10:00,2.4,4.3,4.9,4.3,4.6,1.6,2.3,2.7,-,CALM,��
2014/05/09,10:10,2.4,4.4,4.9,4.3,4.6,1.6,2.3,2.7,-,CALM,��
2014/05/09,10:20,2.4,4.3,4.9,4.3,4.6,1.6,2.3,2.7,-,CALM,��
2014/05/09,10:30,2.4,4.3,4.9,4.3,4.6,1.6,2.4,2.7,-,CALM,��
2014/05/09,10:40,2.4,4.3,4.9,4.3,4.6,1.6,2.4,2.7,-,CALM,��
2014/05/09,10:50,2.4,4.4,4.9,4.3,4.6,1.6,2.4,2.7,-,CALM,��
2014/05/09,11:00,2.4,4.4,4.9,4.3,4.6,1.6,2.4,2.7,-,CALM,��
2014/05/09,11:10,2.4,4.4,4.9,4.3,4.6,1.6,2.3,2.7,-,CALM,��
2014/05/09,11:20,2.4,4.4,4.9,4.3,4.6,1.6,2.3,2.7,-,CALM,��
2014/05/09,11:30,2.4,4.4,4.9,4.3,4.6,1.6,2.3,2.7,-,CALM,��
2014/05/09,11:40,2.4,4.4,4.9,4.3,4.6,1.6,2.3,2.7,-,CALM,��
2014/05/09,11:50,2.4,4.4,4.9,4.3,4.6,1.6,2.4,2.7,-,CALM,��
2014/05/09,12:00,2.4,4.4,4.9,4.3,4.6,1.6,2.3,2.7,-,-,��
2014/05/09,12:10,2.4,4.4,4.9,4.3,4.6,1.6,2.3,2.7,-,-,��
2014/05/09,12:20,2.4,4.4,4.9,4.3,4.6,1.6,2.3,2.7,-,-,��
2014/05/09,12:30,2.4,4.4,4.9,4.3,4.6,1.6,2.3,2.7,��,6.7,��
2014/05/09,12:40,2.4,4.3,4.9,4.3,4.6,1.6,2.3,2.7,��,4.6,��
2014/05/09,12:50,2.4,4.4,4.9,4.3,4.6,1.6,2.3,2.7,��,6.8,�L
2014/05/09,13:00,2.4,4.4,4.9,4.3,4.6,1.6,2.3,2.7,��,3.8,�L
2014/05/09,13:10,2.4,4.4,4.9,4.3,4.6,1.6,2.3,2.7,��,4.3,�L
2014/05/09,13:20,2.4,4.4,4.9,4.3,4.6,1.6,2.3,2.7,��쓌,2.5,��
2014/05/09,13:30,2.4,4.4,4.9,4.3,4.6,1.6,2.3,2.7,��쓌,2.9,��
2014/05/09,13:40,2.4,4.4,4.9,4.3,4.6,1.6,2.3,2.7,�쓌,4.4,��
2014/05/09,13:50,2.4,4.3,4.9,4.3,4.6,1.6,2.3,2.7,��,4.0,��
2014/05/09,14:00,2.4,4.3,4.9,4.3,4.6,1.6,2.3,2.7,��쓌,4.8,�L
2014/05/09,14:10,2.4,4.3,4.9,4.3,4.6,1.6,2.3,2.7,��쓌,1.7,�L
2014/05/09,14:20,2.4,4.3,4.9,4.3,4.6,1.6,2.3,2.7,���k��,1.5,�L
2014/05/09,14:30,2.4,4.3,4.9,4.3,4.6,1.6,2.3,2.7,�k��,2.9,�L
2014/05/09,14:40,2.4,4.3,4.8,4.3,4.6,1.6,2.3,2.7,���k��,7.9,�L
2014/05/09,14:50,2.4,4.3,4.8,4.3,4.5,1.6,2.3,2.7,���k��,9.7,�L
2014/05/09,15:00,2.4,4.3,4.8,4.3,4.5,1.6,2.3,2.7,���k��,8.5,�L
2014/05/09,15:10,2.4,4.2,4.8,4.3,4.5,1.6,2.3,2.7,���k��,9.6,�L
2014/05/09,15:20,2.4,4.2,4.7,4.3,4.5,1.6,2.3,2.7,���k��,10.8,�L
2014/05/09,15:30,2.4,4.2,4.7,4.2,4.4,1.6,2.3,2.7,���k��,10.8,�L
2014/05/09,15:40,2.4,4.2,4.7,4.2,4.4,1.6,2.3,2.7,���k��,9.6,�L
2014/05/09,15:50,2.4,4.2,4.7,4.2,4.4,1.6,2.3,2.6,���k��,8.0,�L
2014/05/09,16:00,2.4,4.2,4.7,4.2,4.4,1.6,2.3,2.6,�k��,8.2,�L
2014/05/09,16:10,2.4,4.2,4.7,4.2,4.4,1.6,2.3,2.7,���k��,4.9,�L
2014/05/09,16:20,2.4,4.2,4.7,4.2,4.4,1.6,2.3,2.7,���k��,2.6,�L
2014/05/09,16:30,2.3,4.2,4.7,4.2,4.4,1.6,2.3,2.6,��,3.3,�L
2014/05/09,16:40,2.3,4.1,4.6,4.2,4.4,1.6,2.3,2.6,�k��,2.3,��
2014/05/09,16:50,2.3,4.1,4.6,4.2,4.4,1.6,2.3,2.6,���k��,4.5,��
2014/05/09,17:00,2.3,4.1,4.7,4.2,4.4,1.6,2.3,2.6,�k��,6.7,��
2014/05/09,17:10,2.3,4.1,4.7,4.2,4.4,1.6,2.3,2.6,���k��,7.7,��
2014/05/09,17:20,2.3,4.2,4.7,4.2,4.4,1.6,2.3,2.7,�k��,6.7,��
2014/05/09,17:30,2.3,4.2,4.7,4.2,4.4,1.6,2.3,2.6,�k��,6.3,��
2014/05/09,17:40,2.3,4.2,4.7,4.2,4.4,1.6,2.3,2.6,�k��,4.2,��
2014/05/09,17:50,2.3,4.2,4.7,4.2,4.4,1.6,2.3,2.6,�k��,4.9,��
2014/05/09,18:00,2.3,4.2,4.7,4.2,4.4,1.6,2.3,2.6,�k��,4.7,��
2014/05/09,18:10,2.3,4.2,4.7,4.2,4.4,1.6,2.3,2.6,�k��,4.3,��
2014/05/09,18:20,2.3,4.2,4.7,4.2,4.4,1.6,2.3,2.6,�k��,3.7,��
2014/05/09,18:30,2.3,4.2,4.7,4.2,4.4,1.6,2.3,2.6,�k�k��,2.7,��
2014/05/09,18:40,2.3,4.2,4.7,4.2,4.4,1.6,2.3,2.6,�k��,2.8,��
2014/05/09,18:50,2.3,4.1,4.7,4.2,4.4,1.6,2.3,2.6,�k��,2.4,��
2014/05/09,19:00,2.3,4.2,4.7,4.2,4.4,1.6,2.3,2.6,���k��,2.3,��
2014/05/09,19:10,2.3,4.2,4.7,4.2,4.4,1.6,2.3,2.6,�k��,2.4,��
2014/05/09,19:20,2.3,4.2,4.7,4.2,4.4,1.6,2.3,2.6,��,2.6,��
2014/05/09,19:30,2.3,4.2,4.7,4.2,4.4,1.6,2.3,2.6,���쐼,1.4,��
2014/05/09,19:40,2.3,4.2,4.7,4.2,4.4,1.6,2.3,2.6,�쐼,2.3,��
2014/05/09,19:50,2.3,4.2,4.7,4.2,4.4,1.6,2.3,2.6,�쐼,2.4,��
2014/05/09,20:00,2.3,4.2,4.7,4.2,4.4,1.6,2.3,2.6,��쐼,2.5,��
2014/05/09,20:10,2.3,4.2,4.7,4.2,4.4,1.6,2.3,2.6,�쐼,2.7,��
2014/05/09,20:20,2.3,4.2,4.7,4.2,4.4,1.6,2.3,2.6,�쐼,3.1,��
2014/05/09,20:30,2.3,4.2,4.7,4.2,4.4,1.6,2.3,2.6,���쐼,3.6,��
2014/05/09,20:40,2.3,4.2,4.7,4.2,4.4,1.6,2.3,2.6,���쐼,2.7,��
2014/05/09,20:50,2.3,4.2,4.7,4.2,4.4,1.6,2.3,2.6,��,2.0,��
2014/05/09,21:00,2.3,4.2,4.7,4.2,4.4,1.6,2.3,2.6,��,2.9,��
2014/05/09,21:10,2.3,4.2,4.7,4.2,4.4,1.6,2.3,2.6,���쐼,3.7,��
2014/05/09,21:20,2.3,4.2,4.7,4.2,4.4,1.6,2.3,2.6,���쐼,3.0,��
2014/05/09,21:30,2.3,4.2,4.7,4.2,4.4,1.6,2.3,2.6,���쐼,4.2,��
2014/05/09,21:40,2.3,4.2,4.7,4.2,4.4,1.6,2.3,2.6,��,4.7,��
2014/05/09,21:50,2.3,4.2,4.7,4.2,4.4,1.6,2.3,2.6,��,6.8,��
2014/05/09,22:00,2.3,4.2,4.7,4.2,4.4,1.6,2.3,2.6,��,6.4,��
2014/05/09,22:10,2.3,4.2,4.7,4.2,4.4,1.6,2.3,2.7,��,8.5,��
2014/05/09,22:20,2.3,4.2,4.7,4.2,4.4,1.6,2.3,2.6,��,8.2,��
2014/05/09,22:30,2.3,4.2,4.7,4.2,4.4,1.6,2.3,2.6,��,6.4,��
2014/05/09,22:40,2.3,4.2,4.7,4.2,4.4,1.6,2.3,2.6,���k��,6.3,��
2014/05/09,22:50,2.3,4.2,4.7,4.2,4.4,1.6,2.3,2.6,���k��,2.6,��
2014/05/09,23:00,2.3,4.2,4.7,4.2,4.4,1.6,2.3,2.6,��,2.9,��
2014/05/09,23:10,2.3,4.2,4.7,4.2,4.4,1.6,2.3,2.7,���쐼,1.9,��
2014/05/09,23:20,2.3,4.2,4.7,4.2,4.4,1.6,2.3,2.7,��쐼,3.3,��
2014/05/09,23:30,2.3,4.2,4.7,4.2,4.4,1.6,2.3,2.7,��쐼,3.4,��
2014/05/09,23:40,2.3,4.2,4.7,4.2,4.4,1.6,2.3,2.7,�쐼,4.4,��
2014/05/09,23:50,2.3,4.2,4.7,4.2,4.4,1.6,2.3,2.7,���쐼,4.4,��
